Powrót do katalogu

EUTE 7 WEST A

AB 7

AktywnyŁącznośćGEO
NORAD 37816·PAYLOAD·🇪🇺 EU

Wystrzelony Sep 24, 2011 z Sea Launch Platform

Loading…

TLE

ŚwieżeSource: Space-Track

Epoka: Sep 14, 2026, 08:38 UTC

1 37816U 11051A   26257.35983174 -.00000069  00000-0  00000-0 0  9991
2 37816   0.0632 352.7969 0005998 180.8597 301.9039  1.00272177 54773

Śledź EUTE 7 WEST A w czasie rzeczywistym z AllMySat

Download on the App Store